TimePDT,TemperatureF,Dew PointF,Humidity,Sea Level PressureIn,VisibilityMPH,Wind Direction,Wind SpeedMPH,Gust SpeedMPH,PrecipitationIn,Events,Conditions,WindDirDegrees,DateUTC
12:53 AM,48.0,24.1,39,30.05,10.0,NW,5.8,-,N/A,,Clear,320,2012-10-07 07:53:00
1:53 AM,42.1,24.1,49,30.05,10.0,West,3.5,-,N/A,,Clear,280,2012-10-07 08:53:00
2:53 AM,39.9,25.0,55,30.05,10.0,WNW,6.9,-,N/A,,Clear,290,2012-10-07 09:53:00
3:53 AM,39.0,25.0,57,30.04,10.0,WNW,5.8,-,N/A,,Clear,290,2012-10-07 10:53:00
4:53 AM,39.9,26.1,58,30.04,10.0,WNW,3.5,-,N/A,,Clear,300,2012-10-07 11:53:00
5:53 AM,37.9,25.0,60,30.04,10.0,WNW,4.6,-,N/A,,Clear,290,2012-10-07 12:53:00
6:53 AM,37.0,25.0,62,30.04,10.0,WNW,4.6,-,N/A,,Clear,290,2012-10-07 13:53:00
7:53 AM,39.9,27.0,60,30.05,10.0,NW,3.5,-,N/A,,Clear,310,2012-10-07 14:53:00
8:53 AM,48.0,28.0,46,30.05,10.0,NW,3.5,-,N/A,,Clear,310,2012-10-07 15:53:00
9:53 AM,57.9,28.9,33,30.04,10.0,NW,3.5,-,N/A,,Clear,310,2012-10-07 16:53:00
10:53 AM,66.0,28.0,24,30.03,10.0,NW,4.6,-,N/A,,Clear,310,2012-10-07 17:53:00
11:53 AM,71.1,25.0,18,30.00,10.0,East,4.6,-,N/A,,Clear,90,2012-10-07 18:53:00
12:53 PM,73.0,26.1,17,29.99,10.0,ENE,4.6,-,N/A,,Clear,60,2012-10-07 19:53:00
1:53 PM,75.9,26.1,16,29.97,10.0,NNE,5.8,-,N/A,,Clear,30,2012-10-07 20:53:00
2:53 PM,77.0,26.1,15,29.94,10.0,Variable,4.6,-,N/A,,Clear,0,2012-10-07 21:53:00
3:53 PM,78.1,26.1,15,29.92,10.0,Calm,Calm,-,N/A,,Clear,0,2012-10-07 22:53:00
4:53 PM,78.1,25.0,14,29.91,10.0,Calm,Calm,-,N/A,,Clear,0,2012-10-07 23:53:00
5:53 PM,77.0,28.0,17,29.90,10.0,Calm,Calm,-,N/A,,Clear,0,2012-10-08 00:53:00
6:53 PM,62.1,34.0,35,29.90,10.0,Calm,Calm,-,N/A,,Clear,0,2012-10-08 01:53:00
7:53 PM,55.9,34.0,44,29.91,10.0,Calm,Calm,-,N/A,,Clear,0,2012-10-08 02:53:00
8:53 PM,51.1,34.0,52,29.91,10.0,NW,3.5,-,N/A,,Clear,310,2012-10-08 03:53:00
9:53 PM,48.0,33.1,56,29.91,10.0,Calm,Calm,-,N/A,,Clear,0,2012-10-08 04:53:00
10:53 PM,45.0,33.1,63,29.92,10.0,Calm,Calm,-,N/A,,Clear,0,2012-10-08 05:53:00
11:53 PM,44.1,33.1,65,29.92,10.0,Calm,Calm,-,N/A,,Clear,0,2012-10-08 06:53:00